Time,TemperatureF,DewpointF,PressureIn,WindDirection,WindDirectionDegrees,WindSpeedMPH,WindSpeedGustMPH,Humidity,HourlyPrecipIn,Conditions,Clouds,dailyrainin,SoftwareType,DateUTC
2013-05-26 00:04:00,50.9,35.3,30.04,West,270,2.7,-999.0,55,-99.99,,,0.00,Acu-Link.com,2013-05-26 04:04:00,
2013-05-26 00:19:00,50.9,35.3,30.04,NW,315,3.7,-999.0,55,-99.99,,,0.00,Acu-Link.com,2013-05-26 04:19:00,
2013-05-26 00:35:00,50.9,35.8,30.05,North,0,1.7,-999.0,56,-99.99,,,0.00,Acu-Link.com,2013-05-26 04:35:00,
2013-05-26 00:50:00,49.8,35.2,30.05,NNW,337,3.7,-999.0,57,-99.99,,,0.00,Acu-Link.com,2013-05-26 04:50:00,
2013-05-26 01:05:00,48.4,35.6,30.05,SSE,157,0.0,-999.0,61,-99.99,,,0.00,Acu-Link.com,2013-05-26 05:05:00,
2013-05-26 01:20:00,46.9,35.0,30.05,NW,315,0.0,-999.0,63,-99.99,,,0.00,Acu-Link.com,2013-05-26 05:20:00,
2013-05-26 01:36:00,45.9,35.6,30.05,West,270,0.0,-999.0,67,-99.99,,,0.00,Acu-Link.com,2013-05-26 05:36:00,
2013-05-26 01:51:00,45.7,35.4,30.05,West,270,0.0,-999.0,67,-99.99,,,0.00,Acu-Link.com,2013-05-26 05:51:00,
2013-05-26 02:06:00,45.0,35.5,30.05,WNW,292,0.0,-999.0,69,-99.99,,,0.00,Acu-Link.com,2013-05-26 06:06:00,
2013-05-26 02:21:00,44.6,35.4,30.05,WSW,247,0.0,-999.0,70,-99.99,,,0.00,Acu-Link.com,2013-05-26 06:21:00,
2013-05-26 02:36:00,44.8,35.6,30.05,NNW,337,3.2,-999.0,70,-99.99,,,0.00,Acu-Link.com,2013-05-26 06:36:00,
2013-05-26 02:52:00,45.3,36.1,30.05,NW,315,4.7,-999.0,70,-99.99,,,0.00,Acu-Link.com,2013-05-26 06:52:00,
2013-05-26 03:07:00,45.9,35.9,30.05,NW,315,4.2,-999.0,68,-99.99,,,0.00,Acu-Link.com,2013-05-26 07:07:00,
2013-05-26 03:22:00,46.2,36.2,30.05,West,270,4.2,-999.0,68,-99.99,,,0.00,Acu-Link.com,2013-05-26 07:22:00,
2013-05-26 03:37:00,46.0,36.0,30.04,West,270,3.2,-999.0,68,-99.99,,,0.00,Acu-Link.com,2013-05-26 07:37:00,
2013-05-26 03:52:00,46.2,36.2,30.04,WSW,247,1.7,-999.0,68,-99.99,,,0.00,Acu-Link.com,2013-05-26 07:52:00,
2013-05-26 04:08:00,46.2,36.2,30.04,NW,315,3.7,-999.0,68,-99.99,,,0.00,Acu-Link.com,2013-05-26 08:08:00,
2013-05-26 04:24:00,46.2,36.2,30.04,West,270,1.7,-999.0,68,-99.99,,,0.00,Acu-Link.com,2013-05-26 08:24:00,
2013-05-26 04:40:00,46.2,36.2,30.05,West,270,5.8,-999.0,68,-99.99,,,0.00,Acu-Link.com,2013-05-26 08:40:00,
2013-05-26 04:55:00,46.2,36.6,30.05,West,270,5.3,-999.0,69,-99.99,,,0.00,Acu-Link.com,2013-05-26 08:55:00,
2013-05-26 05:10:00,46.8,36.8,30.05,West,270,3.7,-999.0,68,-99.99,,,0.00,Acu-Link.com,2013-05-26 09:10:00,
2013-05-26 05:25:00,46.6,37.0,30.05,West,270,4.7,-999.0,69,-99.99,,,0.00,Acu-Link.com,2013-05-26 09:25:00,
2013-05-26 05:40:00,47.5,37.1,30.05,North,0,4.2,-999.0,67,-99.99,,,0.00,Acu-Link.com,2013-05-26 09:40:00,
2013-05-26 05:55:00,47.5,36.7,30.06,WSW,247,3.2,-999.0,66,-99.99,,,0.00,Acu-Link.com,2013-05-26 09:55:00,
2013-05-26 06:11:00,47.5,36.7,30.06,North,0,8.3,-999.0,66,-99.99,,,0.00,Acu-Link.com,2013-05-26 10:11:00,
2013-05-26 06:26:00,47.7,36.9,30.07,West,270,3.2,-999.0,66,-99.99,,,0.00,Acu-Link.com,2013-05-26 10:26:00,
2013-05-26 06:41:00,48.4,37.2,30.07,NW,315,6.8,-999.0,65,-99.99,,,0.00,Acu-Link.com,2013-05-26 10:41:00,
2013-05-26 06:56:00,50.7,38.2,30.08,West,270,7.3,-999.0,62,-99.99,,,0.00,Acu-Link.com,2013-05-26 10:56:00,
2013-05-26 07:11:00,52.2,38.3,30.08,NNW,337,2.2,-999.0,59,-99.99,,,0.00,Acu-Link.com,2013-05-26 11:11:00,
2013-05-26 07:27:00,52.5,38.2,30.08,NNE,22,5.8,-999.0,58,-99.99,,,0.00,Acu-Link.com,2013-05-26 11:27:00,
2013-05-26 07:42:00,54.0,39.1,30.09,WNW,292,7.3,-999.0,57,-99.99,,,0.00,Acu-Link.com,2013-05-26 11:42:00,
2013-05-26 07:57:00,53.4,39.0,30.08,WNW,292,10.9,-999.0,58,-99.99,,,0.00,Acu-Link.com,2013-05-26 11:57:00,
2013-05-26 08:12:00,54.1,39.2,30.09,NW,315,8.9,-999.0,57,-99.99,,,0.00,Acu-Link.com,2013-05-26 12:12:00,
2013-05-26 08:27:00,55.0,39.6,30.09,WNW,292,4.2,-999.0,56,-99.99,,,0.00,Acu-Link.com,2013-05-26 12:27:00,
2013-05-26 08:43:00,56.7,40.7,30.09,NE,45,5.3,-999.0,55,-99.99,,,0.00,Acu-Link.com,2013-05-26 12:43:00,
2013-05-26 08:58:00,57.2,40.2,30.09,NNE,22,7.8,-999.0,53,-99.99,,,0.00,Acu-Link.com,2013-05-26 12:58:00,
2013-05-26 09:13:00,57.4,39.4,30.10,NE,45,6.8,-999.0,51,-99.99,,,0.00,Acu-Link.com,2013-05-26 13:13:00,
2013-05-26 09:28:00,59.0,40.4,30.09,West,270,6.8,-999.0,50,-99.99,,,0.00,Acu-Link.com,2013-05-26 13:28:00,
2013-05-26 09:44:00,59.0,39.9,30.09,West,270,6.3,-999.0,49,-99.99,,,0.00,Acu-Link.com,2013-05-26 13:44:00,
2013-05-26 09:59:00,60.3,41.1,30.09,West,270,8.3,-999.0,49,-99.99,,,0.00,Acu-Link.com,2013-05-26 13:59:00,
2013-05-26 10:14:00,62.6,43.2,30.09,NW,315,3.7,-999.0,49,-99.99,,,0.00,Acu-Link.com,2013-05-26 14:14:00,
2013-05-26 10:29:00,61.7,41.8,30.09,North,0,4.7,-999.0,48,-99.99,,,0.00,Acu-Link.com,2013-05-26 14:29:00,
2013-05-26 10:44:00,62.8,40.0,30.08,NNE,22,5.8,-999.0,43,-99.99,,,0.00,Acu-Link.com,2013-05-26 14:44:00,
2013-05-26 11:00:00,61.7,40.1,30.08,NW,315,11.9,-999.0,45,-99.99,,,0.00,Acu-Link.com,2013-05-26 15:00:00,
2013-05-26 11:15:00,63.7,40.2,30.08,West,270,10.4,-999.0,42,-99.99,,,0.00,Acu-Link.com,2013-05-26 15:15:00,
2013-05-26 11:30:00,63.3,39.2,30.08,North,0,10.4,-999.0,41,-99.99,,,0.00,Acu-Link.com,2013-05-26 15:30:00,
2013-05-26 11:45:00,62.8,40.0,30.08,NNW,337,14.0,-999.0,43,-99.99,,,0.00,Acu-Link.com,2013-05-26 15:45:00,
2013-05-26 12:00:00,64.9,40.0,30.08,NW,315,5.3,-999.0,40,-99.99,,,0.00,Acu-Link.com,2013-05-26 16:00:00,
2013-05-26 12:16:00,66.4,42.6,30.08,NNE,22,13.5,-999.0,42,-99.99,,,0.00,Acu-Link.com,2013-05-26 16:16:00,
2013-05-26 12:31:00,65.5,41.2,30.07,West,270,8.9,-999.0,41,-99.99,,,0.00,Acu-Link.com,2013-05-26 16:31:00,
2013-05-26 12:46:00,65.8,42.1,30.08,WNW,292,10.9,-999.0,42,-99.99,,,0.00,Acu-Link.com,2013-05-26 16:46:00,
2013-05-26 13:01:00,67.1,42.0,30.07,West,270,7.8,-999.0,40,-99.99,,,0.00,Acu-Link.com,2013-05-26 17:01:00,
2013-05-26 13:17:00,66.6,41.5,30.07,NE,45,14.5,-999.0,40,-99.99,,,0.00,Acu-Link.com,2013-05-26 17:17:00,
2013-05-26 13:32:00,66.4,40.7,30.05,ENE,67,8.9,-999.0,39,-99.99,,,0.00,Acu-Link.com,2013-05-26 17:32:00,
2013-05-26 13:47:00,67.6,41.8,30.05,NW,315,5.3,-999.0,39,-99.99,,,0.00,Acu-Link.com,2013-05-26 17:47:00,
2013-05-26 14:02:00,68.4,40.4,30.05,WNW,292,5.8,-999.0,36,-99.99,,,0.00,Acu-Link.com,2013-05-26 18:02:00,
2013-05-26 14:17:00,68.4,42.5,30.04,NW,315,7.3,-999.0,39,-99.99,,,0.00,Acu-Link.com,2013-05-26 18:17:00,
2013-05-26 14:33:00,68.5,40.5,30.05,NNE,22,9.4,-999.0,36,-99.99,,,0.00,Acu-Link.com,2013-05-26 18:33:00,
2013-05-26 14:48:00,70.0,40.3,30.04,NW,315,9.9,-999.0,34,-99.99,,,0.00,Acu-Link.com,2013-05-26 18:48:00,
2013-05-26 15:03:00,71.1,41.3,30.04,NW,315,8.9,-999.0,34,-99.99,,,0.00,Acu-Link.com,2013-05-26 19:03:00,
2013-05-26 15:18:00,70.3,41.3,30.03,WNW,292,4.7,-999.0,35,-99.99,,,0.00,Acu-Link.com,2013-05-26 19:18:00,
2013-05-26 15:33:00,70.5,41.5,30.03,NE,45,6.3,-999.0,35,-99.99,,,0.00,Acu-Link.com,2013-05-26 19:33:00,
2013-05-26 15:49:00,70.7,41.7,30.02,NW,315,7.3,-999.0,35,-99.99,,,0.00,Acu-Link.com,2013-05-26 19:49:00,
2013-05-26 16:04:00,70.2,39.7,30.03,NE,45,5.8,-999.0,33,-99.99,,,0.00,Acu-Link.com,2013-05-26 20:04:00,
2013-05-26 16:19:00,71.4,39.2,30.03,West,270,8.3,-999.0,31,-99.99,,,0.00,Acu-Link.com,2013-05-26 20:19:00,
2013-05-26 16:34:00,72.3,40.0,30.03,WNW,292,6.3,-999.0,31,-99.99,,,0.00,Acu-Link.com,2013-05-26 20:34:00,
2013-05-26 16:49:00,73.2,40.7,30.02,WNW,292,7.8,-999.0,31,-99.99,,,0.00,Acu-Link.com,2013-05-26 20:49:00,
2013-05-26 17:05:00,73.6,39.4,30.03,NNW,337,5.3,-999.0,29,-99.99,,,0.00,Acu-Link.com,2013-05-26 21:05:00,
2013-05-26 17:20:00,73.2,39.9,30.03,NNE,22,6.3,-999.0,30,-99.99,,,0.00,Acu-Link.com,2013-05-26 21:20:00,
2013-05-26 17:35:00,72.7,38.6,30.02,North,0,4.2,-999.0,29,-99.99,,,0.00,Acu-Link.com,2013-05-26 21:35:00,
2013-05-26 17:50:00,72.9,39.6,30.02,NNW,337,7.3,-999.0,30,-99.99,,,0.00,Acu-Link.com,2013-05-26 21:50:00,
2013-05-26 18:06:00,72.7,39.5,30.02,West,270,5.3,-999.0,30,-99.99,,,0.00,Acu-Link.com,2013-05-26 22:06:00,
2013-05-26 18:21:00,72.7,41.1,30.03,NNW,337,5.8,-999.0,32,-99.99,,,0.00,Acu-Link.com,2013-05-26 22:21:00,
2013-05-26 18:36:00,72.0,39.7,30.03,ENE,67,5.8,-999.0,31,-99.99,,,0.00,Acu-Link.com,2013-05-26 22:36:00,
2013-05-26 18:51:00,72.1,41.4,30.04,NNW,337,2.7,-999.0,33,-99.99,,,0.00,Acu-Link.com,2013-05-26 22:51:00,
2013-05-26 19:06:00,70.5,39.2,30.03,NNE,22,8.3,-999.0,32,-99.99,,,0.00,Acu-Link.com,2013-05-26 23:06:00,
2013-05-26 19:22:00,71.1,39.7,30.04,NW,315,6.3,-999.0,32,-99.99,,,0.00,Acu-Link.com,2013-05-26 23:22:00,
2013-05-26 19:37:00,69.6,40.0,30.04,West,270,2.2,-999.0,34,-99.99,,,0.00,Acu-Link.com,2013-05-26 23:37:00,
2013-05-26 19:52:00,68.5,40.5,30.05,WNW,292,1.7,-999.0,36,-99.99,,,0.00,Acu-Link.com,2013-05-26 23:52:00,
2013-05-26 20:07:00,65.3,42.8,30.06,NNW,337,1.1,-999.0,44,-99.99,,,0.00,Acu-Link.com,2013-05-27 00:07:00,
2013-05-26 20:22:00,62.6,41.0,30.05,NE,45,1.1,-999.0,45,-99.99,,,0.00,Acu-Link.com,2013-05-27 00:22:00,
2013-05-26 20:38:00,59.7,42.0,30.06,SSE,157,0.0,-999.0,52,-99.99,,,0.00,Acu-Link.com,2013-05-27 00:38:00,
2013-05-26 20:53:00,57.9,42.3,30.07,NNW,337,1.7,-999.0,56,-99.99,,,0.00,Acu-Link.com,2013-05-27 00:53:00,
2013-05-26 21:08:00,55.9,43.5,30.07,SE,135,0.0,-999.0,63,-99.99,,,0.00,Acu-Link.com,2013-05-27 01:08:00,
2013-05-26 21:23:00,54.5,43.0,30.08,NNE,22,2.2,-999.0,65,-99.99,,,0.00,Acu-Link.com,2013-05-27 01:23:00,
2013-05-26 21:38:00,53.4,43.9,30.08,SSE,157,0.0,-999.0,70,-99.99,,,0.00,Acu-Link.com,2013-05-27 01:38:00,
2013-05-26 21:54:00,52.2,42.7,30.09,North,0,2.2,-999.0,70,-99.99,,,0.00,Acu-Link.com,2013-05-27 01:54:00,
2013-05-26 22:09:00,52.2,42.7,30.09,South,180,1.7,-999.0,70,-99.99,,,0.00,Acu-Link.com,2013-05-27 02:09:00,
2013-05-26 22:24:00,51.6,42.9,30.10,NNE,22,2.2,-999.0,72,-99.99,,,0.00,Acu-Link.com,2013-05-27 02:24:00,
2013-05-26 22:39:00,50.7,42.7,30.10,NNW,337,0.0,-999.0,74,-99.99,,,0.00,Acu-Link.com,2013-05-27 02:39:00,
2013-05-26 22:55:00,49.5,42.6,30.11,NNW,337,1.7,-999.0,77,-99.99,,,0.00,Acu-Link.com,2013-05-27 02:55:00,
2013-05-26 23:10:00,50.9,41.8,30.11,SSE,157,0.0,-999.0,71,-99.99,,,0.00,Acu-Link.com,2013-05-27 03:10:00,
2013-05-26 23:25:00,49.1,42.2,30.11,NNW,337,1.7,-999.0,77,-99.99,,,0.00,Acu-Link.com,2013-05-27 03:25:00,
2013-05-26 23:40:00,48.6,41.4,30.11,West,270,0.0,-999.0,76,-99.99,,,0.00,Acu-Link.com,2013-05-27 03:40:00,
2013-05-26 23:55:00,48.0,41.5,30.12,WNW,292,0.0,-999.0,78,-99.99,,,0.00,Acu-Link.com,2013-05-27 03:55:00,